[[{"header":{"parameterUnit":"m.s-1","parameterCategory":1,"la1":30.2991,"la2":30.254,"lo1":-89.0895,"lo2":-89.0444,"dy":0.0017,"dx":0.0017,"nx":28,"ny":28,"refTime":"2025-04-11T09:00:00:Z","depth":0,"parameterNumber":2,"parameterNumberName":"U-component_of_WINDS"},"data":[0,0,0,0,0,0,0,0,0,0,0,0,0,0,0,0,0,0,0,0,0,0,0,0,0,0,0,0,0,0,0,0,0,0,0,0,0,0,0,0,0,0,0,0,0,0,0,0,0,0,0,0,0,0,0,0,0,0,1.4264,1.4265,0,1.4329,1.4329,1.433,1.4317,1.4316,1.4315,1.4314,1.4383,1.4386,1.4388,0,0,0,0,0,0,0,0,0,0,0,0,0,1.4136,1.4138,1.4264,1.4265,1.4266,1.4328,1.4329,1.433,1.4317,1.4316,1.4315,1.4313,1.4382,1.4385,1.4389,0,0,0,0,0,0,0,0,0,0,0,0,0,1.4195,1.4139,1.4264,1.4267,1.4268,1.4328,1.4329,1.433,1.4318,1.4316,1.4314,1.4313,1.4381,1.4385,1.4389,1.4452,0,0,1.4403,1.4405,0,0,0,0,0,0,0,0,1.4192,1.42,1.4266,1.4267,1.4268,1.4313,1.4309,1.4371,1.4318,1.4299,1.4314,1.4312,1.4361,1.4367,1.4383,1.4455,1.4458,1.4403,1.4406,1.4408,1.4409,0,0,0,0,0,0,0,1.4188,1.4197,1.429,1.4267,1.4268,1.4267,1.4273,1.4321,1.4339,1.43,1.43,1.4307,1.4361,1.4379,1.4385,1.4459,1.4403,1.4407,1.4409,1.4411,1.4589,1.4591,0,0,0,0,0,0,1.4182,1.4194,1.4288,1.4292,1.4225,1.4271,1.4278,1.43,1.4339,1.4343,1.4309,1.4306,1.4372,1.4379,1.4387,1.4465,1.4408,1.4412,1.4414,1.4587,1.459,1.4592,0,0,0,0,0,0,1.4179,1.4191,1.4285,1.4243,1.4255,1.4275,1.43,1.4303,1.432,1.4345,1.4349,1.4323,1.4371,1.4381,1.4436,1.4467,1.4414,1.4418,1.4585,1.4588,1.4591,1.462,0,0,0,0,0,0,1.4176,1.419,1.4212,1.4243,1.4257,1.4332,1.4302,1.4305,1.4327,1.4325,1.4359,1.4363,1.437,1.443,1.4441,1.4472,1.4421,1.4582,1.4586,1.459,1.4617,1.4624,1.463,0,0,0,0,0,1.4171,1.4218,1.4213,1.4225,1.4285,1.4334,1.4342,1.4348,1.433,1.4354,1.437,1.4362,1.4462,1.4436,1.4448,1.4481,1.458,1.4585,1.459,1.4614,1.4623,1.463,0,0,0,0,0,0,1.419,1.4222,1.4217,1.4275,1.4302,1.4331,1.4361,1.4357,1.439,1.4387,1.4395,1.4403,1.446,1.4476,1.4446,1.4546,1.4519,1.4526,1.4533,1.4542,1.4548,1.4544,1.4425,0,0,0,0,0,1.4201,1.4236,1.4262,1.4311,1.4324,1.4341,1.4362,1.4365,1.4394,1.4405,1.4426,1.4455,1.4493,1.4518,1.4555,1.4619,1.4628,1.4648,1.4655,1.4661,1.4667,1.4706,1.4716,1.4608,1.4608,1.4608,0,0,1.4223,1.4245,1.4267,1.4315,1.4336,1.4375,1.435,1.4391,1.4421,1.4412,1.4466,1.4482,1.4516,1.4577,1.4605,1.4592,1.47,1.4667,1.4671,1.4675,1.4712,1.4722,1.4731,1.4611,1.461,1.461,0,0,1.4284,1.4303,1.4347,1.4369,1.4402,1.4413,1.4424,1.4455,1.4465,1.452,1.4515,1.4551,1.4616,1.4641,1.4662,1.4736,1.4731,1.4748,1.4784,1.4822,1.483,1.4838,1.4867,1.4877,1.4755,1.4755,1.4755,0,1.4309,1.4365,1.437,1.4413,1.4435,1.4429,1.4475,1.4497,1.454,1.4557,1.4542,1.4626,1.4647,1.4716,1.4735,1.4751,1.4766,1.4744,1.4828,1.4836,1.4844,1.4871,1.4882,1.4757,1.4756,1.4756,1.4756,0,1.4394,1.4434,1.4466,1.4508,1.4534,1.4578,1.4592,1.4619,1.462,1.4634,1.4691,1.4718,1.4761,1.4777,1.4779,1.4848,1.4839,1.4826,1.48,1.4856,1.4882,1.4893,1.4759,1.4759,1.4758,1.4758,0,0,1.4467,1.4514,1.4525,1.4546,1.4583,1.4614,1.466,1.4701,1.4725,1.4756,1.4796,1.4853,1.4842,1.4866,1.4871,1.4904,1.4965,1.4888,1.4889,1.4903,1.5046,1.5056,1.5068,1.4962,1.4964,1.4966,1.5044,0,1.4533,1.4611,1.4619,1.469,1.4729,1.4725,1.4765,1.4794,1.4808,1.4845,1.4861,1.4902,1.4884,1.4899,1.4931,1.4951,1.4994,1.4945,1.5002,1.5004,1.4994,1.5081,1.5092,1.5164,1.5054,1.5056,1.5057,0,1.462,1.4654,1.4728,1.4763,1.478,1.4815,1.4856,1.489,1.4923,1.4932,1.4961,1.4962,1.5012,1.4983,1.5053,1.502,1.5044,1.5057,1.506,1.5067,1.5034,1.5092,1.5187,1.5198,1.5073,1.5071,1.507,0,1.4668,1.4733,1.4786,1.4804,1.4845,1.487,1.4889,1.4921,1.4946,1.4983,1.5,1.5042,1.5066,1.5099,1.5113,1.5091,1.5184,1.5155,1.5195,1.5194,1.5215,1.5213,1.5316,1.5228,1.5228,1.5227,1.5227,0,1.4742,1.4788,1.4809,1.4842,1.4896,1.4906,1.4959,1.4976,1.5005,1.5044,1.5043,1.508,1.5096,1.5136,1.5147,1.5205,1.5215,1.5226,1.5229,1.5227,1.5226,1.5243,1.5239,1.523,1.523,1.5229,1.5229,0,1.4805,1.482,1.4879,1.4914,1.4924,1.4962,1.4993,1.5026,1.5041,1.5091,1.5103,1.5127,1.5175,1.5192,1.5249,1.5257,1.5326,1.5323,1.5314,1.5315,1.5354,1.5351,1.5473,1.5491,1.5389,1.539,1.539,0,1.4851,1.4886,1.4926,1.4951,1.4971,1.5012,1.5038,1.5051,1.5079,1.5122,1.5151,1.5198,1.5237,1.5313,1.5337,1.5382,1.5383,1.5422,1.5389,1.5387,1.5386,1.5384,1.5389,1.5429,1.543,1.543,1.5431,0,1.4932,1.4939,1.4976,1.5018,1.505,1.5084,1.5116,1.5138,1.5156,1.5188,1.5236,1.5266,1.5326,1.5374,1.5421,1.5442,1.5441,1.5441,1.5453,1.5452,1.5446,1.5452,1.5332,1.5439,1.5438,1.5437,1.5437,1.5437,1.4989,1.5022,1.5056,1.5099,1.5125,1.5156,1.519,1.5211,1.5251,1.53,1.5305,1.5358,1.5395,1.5457,1.5481,1.5525,1.5514,1.553,1.5535,1.5539,1.5543,1.5438,1.5533,1.5533,1.5533,1.5532,1.5532,0,1.5072,1.5094,1.5134,1.518,1.5215,1.521,1.5247,1.5277,1.5323,1.5357,1.5395,1.5452,1.55,1.5529,1.5577,1.5606,1.5607,1.5619,1.5617,1.5623,1.5549,1.5535,1.5617,1.5617,1.5617,1.5617,1.5617,1.5617,1.512,1.5176,1.5187,1.5258,1.528,1.5331,1.5353,1.5383,1.541,1.5474,1.5513,1.5532,1.5565,1.5616,1.566,1.5668,1.5687,1.5699,1.5706,1.5637,1.5628,1.5619,1.5606,1.5703,1.5703,1.5778,1.5778,1.5779]},{"header":{"parameterUnit":"m.s-1","parameterCategory":1,"la1":30.2991,"la2":30.254,"lo1":-89.0895,"lo2":-89.0444,"dy":0.0017,"dx":0.0017,"nx":28,"ny":28,"refTime":"2025-04-11T09:00:00:Z","depth":0,"parameterNumber":3,"parameterNumberName":"V-component_of_WINDS"},"data":[0,0,0,0,0,0,0,0,0,0,0,0,0,0,0,0,0,0,0,0,0,0,0,0,0,0,0,0,0,0,0,0,0,0,0,0,0,0,0,0,0,0,0,0,0,0,0,0,0,0,0,0,0,0,0,0,0,0,-2.0988,-2.0988,0,-2.0994,-2.0994,-2.0995,-2.1046,-2.1048,-2.1049,-2.105,-2.1055,-2.1054,-2.1053,0,0,0,0,0,0,0,0,0,0,0,0,0,-2.1018,-2.1017,-2.0988,-2.0988,-2.0988,-2.0994,-2.0994,-2.0995,-2.1046,-2.1048,-2.1049,-2.1051,-2.1055,-2.1054,-2.1053,0,0,0,0,0,0,0,0,0,0,0,0,0,-2.1012,-2.1017,-2.0988,-2.1015,-2.1017,-2.0994,-2.0994,-2.0995,-2.1046,-2.1048,-2.105,-2.1051,-2.1056,-2.1054,-2.1053,-2.1004,0,0,-2.1048,-2.1047,0,0,0,0,0,0,0,0,-2.1013,-2.1011,-2.101,-2.1013,-2.1015,-2.1022,-2.1007,-2.0998,-2.1045,-2.1035,-2.105,-2.1052,-2.1042,-2.1042,-2.1039,-2.1005,-2.1005,-2.1048,-2.1047,-2.1046,-2.1046,0,0,0,0,0,0,0,-2.1013,-2.1011,-2.099,-2.101,-2.1013,-2.1025,-2.1027,-2.1005,-2.1028,-2.1036,-2.104,-2.104,-2.1044,-2.104,-2.1039,-2.1005,-2.1048,-2.1046,-2.1045,-2.1045,-2.0929,-2.0927,0,0,0,0,0,0,-2.101,-2.1011,-2.099,-2.0991,-2.1019,-2.1023,-2.1025,-2.1018,-2.1028,-2.1031,-2.1038,-2.1042,-2.1042,-2.1041,-2.104,-2.0981,-2.1046,-2.1045,-2.1044,-2.0931,-2.0928,-2.0926,0,0,0,0,0,0,-2.101,-2.1008,-2.099,-2.1002,-2.1001,-2.1021,-2.1012,-2.1017,-2.1013,-2.103,-2.1034,-2.103,-2.1043,-2.1042,-2.1012,-2.0982,-2.1044,-2.1042,-2.0933,-2.093,-2.0927,-2.0866,0,0,0,0,0,0,-2.1011,-2.1007,-2.099,-2.1001,-2.1,-2.0963,-2.101,-2.1015,-2.101,-2.1016,-2.1023,-2.1027,-2.1045,-2.1014,-2.1011,-2.0981,-2.1041,-2.0936,-2.0932,-2.0928,-2.087,-2.0861,-2.0852,0,0,0,0,0,-2.1012,-2.0972,-2.0989,-2.0986,-2.0978,-2.0961,-2.096,-2.0982,-2.1008,-2.0989,-2.1,-2.1026,-2.0987,-2.1011,-2.1007,-2.0977,-2.0938,-2.0933,-2.0929,-2.0874,-2.0862,-2.0853,0,0,0,0,0,0,-2.0957,-2.0974,-2.0993,-2.0956,-2.0956,-2.097,-2.0948,-2.097,-2.0963,-2.0968,-2.0996,-2.0997,-2.0962,-2.0967,-2.0994,-2.0929,-2.0967,-2.0961,-2.0927,-2.0916,-2.0907,-2.0905,-2.104,0,0,0,0,0,-2.094,-2.0925,-2.0942,-2.0908,-2.0907,-2.0927,-2.0921,-2.0938,-2.0939,-2.094,-2.0948,-2.0948,-2.0936,-2.0927,-2.0916,-2.0872,-2.0873,-2.085,-2.0841,-2.0833,-2.0827,-2.0801,-2.079,-2.091,-2.091,-2.0911,0,0,-2.0906,-2.0914,-2.0903,-2.0897,-2.0899,-2.0882,-2.0927,-2.0907,-2.0894,-2.0937,-2.0908,-2.0915,-2.0916,-2.0878,-2.0862,-2.0881,-2.0794,-2.0827,-2.0821,-2.0819,-2.0795,-2.0783,-2.0773,-2.0907,-2.0908,-2.0908,0,0,-2.0834,-2.084,-2.081,-2.0812,-2.0815,-2.0829,-2.0822,-2.0832,-2.0837,-2.081,-2.084,-2.0825,-2.0804,-2.0803,-2.08,-2.0727,-2.0749,-2.0723,-2.0675,-2.0649,-2.064,-2.0631,-2.0602,-2.0591,-2.0717,-2.0717,-2.0717,0,-2.079,-2.0766,-2.0793,-2.077,-2.0765,-2.0804,-2.0773,-2.0774,-2.0773,-2.0768,-2.0791,-2.0763,-2.0767,-2.0728,-2.071,-2.0707,-2.0698,-2.072,-2.0639,-2.0631,-2.0623,-2.0596,-2.0585,-2.0713,-2.0714,-2.0714,-2.0715,0,-2.0711,-2.0694,-2.067,-2.0668,-2.0661,-2.0635,-2.0656,-2.0646,-2.0664,-2.0674,-2.0644,-2.0651,-2.0641,-2.0634,-2.0652,-2.0597,-2.0608,-2.0634,-2.0672,-2.0608,-2.0582,-2.0572,-2.0708,-2.071,-2.0711,-2.0712,0,0,-2.0602,-2.0615,-2.0606,-2.0604,-2.0611,-2.0597,-2.0573,-2.0563,-2.0552,-2.0551,-2.0529,-2.051,-2.0533,-2.053,-2.0548,-2.0526,-2.0463,-2.0554,-2.0555,-2.0534,-2.04,-2.0377,-2.0365,-2.048,-2.0478,-2.0477,-2.0398,0,-2.053,-2.0488,-2.0511,-2.0465,-2.0448,-2.0484,-2.0462,-2.0463,-2.0472,-2.0458,-2.0469,-2.0454,-2.0488,-2.0485,-2.0466,-2.0475,-2.0436,-2.0482,-2.0457,-2.0456,-2.0452,-2.0352,-2.0329,-2.0254,-2.0389,-2.0387,-2.0386,0,-2.044,-2.0434,-2.0386,-2.0394,-2.0388,-2.0368,-2.036,-2.0347,-2.0348,-2.0357,-2.0352,-2.0375,-2.0349,-2.0389,-2.0353,-2.0383,-2.0375,-2.0378,-2.0376,-2.0371,-2.0414,-2.0341,-2.0232,-2.0219,-2.0371,-2.0372,-2.0373,0,-2.0361,-2.0342,-2.031,-2.0308,-2.0318,-2.0302,-2.0305,-2.0308,-2.03,-2.0294,-2.0289,-2.028,-2.0273,-2.0265,-2.0284,-2.0312,-2.0244,-2.0286,-2.0248,-2.0247,-2.0229,-2.023,-2.0113,-2.023,-2.023,-2.0231,-2.0231,0,-2.0276,-2.0245,-2.0274,-2.0254,-2.0219,-2.0246,-2.0211,-2.0218,-2.022,-2.0201,-2.0233,-2.0214,-2.0243,-2.0226,-2.0241,-2.0207,-2.0205,-2.021,-2.0213,-2.0205,-2.0203,-2.0197,-2.0201,-2.0228,-2.0228,-2.0229,-2.0229,0,-2.0181,-2.02,-2.0167,-2.0179,-2.0181,-2.0154,-2.0163,-2.0144,-2.0157,-2.0132,-2.0128,-2.0146,-2.0129,-2.0148,-2.0132,-2.0142,-2.0095,-2.0108,-2.0094,-2.0096,-2.0055,-2.0057,-1.9927,-1.991,-2.0042,-2.004,-2.0039,0,-2.0124,-2.01,-2.0109,-2.0098,-2.0099,-2.0083,-2.0075,-2.01,-2.009,-2.0089,-2.007,-2.0055,-2.0044,-2.0014,-2.0025,-2.0013,-2.0024,-1.9979,-2.0022,-2.0013,-2.0018,-2.0018,-2.0014,-1.9969,-1.9967,-1.9966,-1.9965,0,-2.0019,-2.0029,-2.0017,-2.0007,-1.9997,-1.999,-1.9986,-1.9976,-2.0002,-1.9989,-1.9972,-1.9963,-1.9947,-1.993,-1.9921,-1.9923,-1.9947,-1.9952,-1.9942,-1.9931,-1.9922,-1.9922,-2.0066,-1.9954,-1.9955,-1.9956,-1.9957,-1.9957,-1.9938,-1.9918,-1.992,-1.9905,-1.9904,-1.99,-1.9882,-1.9891,-1.9877,-1.9865,-1.9882,-1.9859,-1.9859,-1.9849,-1.9848,-1.983,-1.9849,-1.9835,-1.9831,-1.9826,-1.9818,-1.9928,-1.9829,-1.9829,-1.983,-1.983,-1.983,0,-1.9832,-1.9835,-1.9821,-1.9814,-1.9801,-1.9827,-1.9823,-1.981,-1.979,-1.9789,-1.9777,-1.9756,-1.974,-1.975,-1.9736,-1.9719,-1.973,-1.9714,-1.9714,-1.9713,-1.9804,-1.9812,-1.9706,-1.9706,-1.9706,-1.9706,-1.9706,-1.9706,-1.9775,-1.974,-1.9751,-1.9716,-1.972,-1.9697,-1.9693,-1.9688,-1.9687,-1.9661,-1.9648,-1.9655,-1.9658,-1.9644,-1.963,-1.9634,-1.9626,-1.9605,-1.9612,-1.9696,-1.9708,-1.9719,-1.9727,-1.9604,-1.9604,-1.9523,-1.9522,-1.9521]}]]